DateTimeUTC,F1_A11,F1_S11,BsB_S11,BsG_S11,BsR_S11,BbsB_S11,BbsG_S11,BbsR_S11,BaB_A11,BaG_A11,BaR_A11,Tu_S11,T_S11,Uu_S11,U_S11,P_S11,T1_A11
2021-10-14T07:00:00Z,00000200,20000000,,,,,,,0000.20,0000.08,0000.09,17.3,24.0,03.6,02.4,0662.8,31.0
2021-10-14T07:01:00Z,00000200,20000000,,,,,,,-000.33,-000.12,0000.05,17.3,24.1,03.6,02.4,0662.8,31.0
2021-10-14T07:02:00Z,00000200,20000000,,,,,,,0000.29,-000.01,0000.01,17.4,24.0,03.6,02.4,0662.8,31.0
2021-10-14T07:03:00Z,00000200,60000000,,,,,,,0000.28,0000.45,-000.03,17.4,24.1,03.6,02.4,0662.8,31.0
2021-10-14T07:04:00Z,00000200,40000000,0000.59,0000.60,0000.23,0000.29,-000.03,0000.09,-000.12,0000.09,0000.07,17.7,24.1,03.9,02.6,0663.6,31.0
2021-10-14T07:05:00Z,00000200,00000000,0000.45,0000.83,0000.28,0000.06,-000.10,0000.37,0000.51,0000.24,0000.35,17.7,24.0,04.1,02.8,0663.7,31.0
2021-10-14T07:06:00Z,00000200,00000000,0001.46,0000.61,0000.59,0000.03,-000.32,0000.27,0000.02,0000.19,0000.27,17.6,24.0,04.0,02.7,0663.6,31.0
2021-10-14T07:07:00Z,00000200,00000000,0000.82,0000.56,0000.24,0000.32,0000.15,-000.08,0000.29,0000.17,-000.00,17.6,23.9,04.1,02.8,0663.7,31.0
2021-10-14T07:08:00Z,00000200,00000000,0000.33,0000.40,0000.08,-000.13,-000.13,-000.09,0000.33,0000.11,0000.09,17.5,23.9,04.0,02.7,0663.7,30.9
2021-10-14T07:09:00Z,00000200,00000000,0000.81,0000.38,0000.40,0000.04,-000.08,0000.03,0000.16,-000.38,0000.12,17.5,23.9,04.1,02.8,0663.7,30.9
2021-10-14T07:10:00Z,00000200,00000000,0001.18,0000.76,0000.31,0000.38,0000.11,-000.31,0000.07,-000.07,-000.06,17.5,23.9,04.1,02.8,0663.7,30.9
2021-10-14T07:11:00Z,00000200,00000000,0001.03,0000.56,0000.58,0000.26,0000.12,0000.43,0000.02,0000.51,-000.09,17.4,23.8,04.2,02.8,0663.7,30.9
2021-10-14T07:12:00Z,00000200,00000000,0001.01,0000.65,0000.37,0000.60,-000.02,0000.07,0000.19,0000.13,0000.42,17.4,23.8,04.1,02.8,0663.7,30.9
2021-10-14T07:13:00Z,00000200,00000000,0000.87,0000.47,0000.45,-000.21,0000.12,-000.04,0000.61,0000.49,0000.36,17.5,23.8,04.2,02.8,0663.7,30.9
2021-10-14T07:14:00Z,00000200,00000000,0000.35,0000.42,0000.43,-000.01,-000.18,0000.22,-000.08,0000.36,0000.14,17.5,23.9,04.2,02.9,0663.7,30.9
2021-10-14T07:15:00Z,00000200,00000000,0000.91,0000.44,0000.21,0000.75,0000.28,-000.08,0000.56,0000.63,0000.51,17.6,23.9,04.3,02.9,0663.7,31.0
2021-10-14T07:16:00Z,00000200,00000000,0000.66,0000.50,0000.07,0000.12,-000.24,0000.22,-000.25,-000.20,-000.56,17.7,23.9,04.2,02.9,0663.8,31.0
2021-10-14T07:17:00Z,00000200,00000000,0000.26,0000.53,0000.41,0001.10,0000.00,0000.25,-000.06,-000.26,0000.13,17.7,24.0,04.1,02.8,0663.7,31.0
2021-10-14T07:18:00Z,00000200,00000000,0000.19,0000.31,0000.24,0000.33,-000.02,0000.34,-000.04,-000.14,-000.06,17.7,23.9,04.2,02.9,0663.9,31.0
2021-10-14T07:19:00Z,00000200,00000000,0000.18,0000.34,0000.03,-000.04,-000.29,-000.04,0000.38,0000.39,0000.14,17.6,23.9,04.1,02.8,0663.8,31.0
2021-10-14T07:20:00Z,00000200,00000000,0001.01,0000.51,0000.38,-000.29,-000.16,0000.47,0000.31,-000.00,-000.35,17.6,23.9,04.2,02.9,0663.8,30.9
2021-10-14T07:21:00Z,00000200,00000000,0000.08,0000.27,0000.03,-000.07,0000.07,0000.06,0000.25,0000.28,0000.51,17.6,23.9,04.2,02.8,0663.9,30.9
2021-10-14T07:22:00Z,00000200,00000000,-000.09,0000.13,0000.18,0000.83,-000.18,0000.03,-000.19,-000.15,0000.51,17.5,23.9,04.2,02.8,0663.8,30.9
2021-10-14T07:23:00Z,00000200,00000000,0000.31,0000.34,0000.16,-000.14,0000.02,-000.10,-000.09,0000.05,-000.47,17.5,23.8,04.2,02.8,0663.8,30.9
2021-10-14T07:24:00Z,00000200,00000000,-000.19,0000.54,0000.05,0000.46,0000.18,0000.28,0000.10,0000.20,0000.13,17.4,23.8,04.3,02.9,0663.8,30.9
2021-10-14T07:25:00Z,00000200,00000000,0000.65,0000.61,0000.26,-000.13,-000.16,0000.04,0000.35,0000.07,0000.38,17.4,23.8,04.4,02.9,0663.7,30.9
2021-10-14T07:26:00Z,00000200,00000000,0000.94,0000.34,0000.47,0000.44,-000.19,0000.21,0000.40,0000.59,-000.26,17.4,23.8,04.3,02.9,0663.6,30.9
2021-10-14T07:27:00Z,00000200,00000000,0000.25,0000.26,0000.24,0000.27,-000.19,0000.11,0000.33,0000.36,0000.76,17.4,23.8,04.5,03.0,0663.5,30.9
2021-10-14T07:28:00Z,00000200,00000000,-000.10,0000.44,0000.10,0000.36,-000.06,0000.08,0000.12,-000.29,-000.14,17.4,23.8,04.4,03.0,0663.7,30.9
2021-10-14T07:29:00Z,00000200,00000000,0000.42,0000.29,0000.16,0000.07,-000.40,0000.15,0000.02,0000.71,0000.15,17.5,23.8,04.4,03.0,0663.6,31.0
2021-10-14T07:30:00Z,00000200,00000000,-000.14,-000.08,0000.28,0000.80,0000.05,0000.30,0000.59,0000.09,0000.39,17.5,23.8,04.4,03.0,0663.6,31.0
2021-10-14T07:31:00Z,00000200,00000000,0000.98,0000.51,0000.07,0000.46,0000.01,0000.12,-000.35,-000.15,-000.11,17.6,23.9,04.4,03.0,0663.7,31.0
2021-10-14T07:32:00Z,00000200,00000000,0001.09,0000.11,0000.39,0001.25,0000.09,0000.03,0000.13,0000.00,0000.19,17.7,23.9,04.4,03.0,0663.5,31.0
2021-10-14T07:33:00Z,00000200,00000000,0000.22,0000.62,0000.31,0000.21,0000.17,0000.15,0000.26,0000.17,-000.10,17.7,23.9,04.6,03.1,0663.6,31.0
2021-10-14T07:34:00Z,00000200,00000000,0000.70,0000.37,-000.04,-000.10,0000.23,0000.06,0000.06,0000.17,0000.12,17.7,23.9,04.4,03.0,0663.6,31.0
2021-10-14T07:35:00Z,00000200,00000000,-000.10,0000.62,-000.06,0000.94,0000.15,0000.01,-000.31,-000.33,-000.20,17.7,23.9,04.5,03.0,0663.7,31.0
2021-10-14T07:36:00Z,00000200,00000000,0000.17,0000.67,0000.07,0000.29,-000.19,-000.19,0000.20,0000.25,-000.14,17.6,23.9,04.4,03.0,0663.6,31.0
2021-10-14T07:37:00Z,00000200,00000000,0001.19,0000.38,0000.16,0000.61,0000.00,-000.09,0000.13,-000.06,0000.40,17.6,23.9,04.4,03.0,0663.6,30.9
2021-10-14T07:38:00Z,00000200,00000000,0000.85,0000.44,0000.18,0000.72,-000.16,-000.04,-000.10,-000.18,-000.10,17.5,23.8,04.5,03.0,0663.5,30.9
2021-10-14T07:39:00Z,00000200,00000000,0000.07,0000.52,0000.47,-000.17,0000.28,0000.36,0000.22,0000.23,0000.09,17.5,23.8,04.4,03.0,0663.6,30.9
2021-10-14T07:40:00Z,00000200,00000000,0001.06,0000.29,0000.08,0000.44,-000.05,0000.19,0000.13,-000.04,0000.06,17.4,23.8,04.4,03.0,0663.5,30.9
2021-10-14T07:41:00Z,00000200,00000000,0000.20,0000.51,0000.12,0000.44,-000.27,-000.02,0000.60,0000.26,0000.38,17.4,23.8,04.4,03.0,0663.5,30.9
2021-10-14T07:42:00Z,00000200,00000000,0000.17,0000.23,0000.38,0000.77,0000.05,0000.33,-000.05,0000.23,-000.02,17.4,23.8,04.4,03.0,0663.5,30.9
2021-10-14T07:43:00Z,00000200,00000000,0000.43,0000.55,0000.25,-000.25,0000.14,0000.18,0000.16,0000.39,0000.33,17.4,23.8,04.5,03.0,0663.5,30.9
2021-10-14T07:44:00Z,00000200,00000000,0000.15,0000.31,-000.04,-000.05,-000.01,0000.36,0000.05,0000.11,-000.21,17.5,23.8,04.5,03.1,0663.5,31.0
2021-10-14T07:45:00Z,00000200,00000000,0000.61,0000.35,0000.16,0000.14,-000.12,0000.21,0000.37,0000.15,0000.29,17.6,23.9,04.4,03.0,0663.6,31.0
2021-10-14T07:46:00Z,00000200,00000000,0000.49,0000.40,-000.06,0000.59,0000.14,-000.04,-000.15,0000.39,0000.14,17.7,23.9,04.4,03.0,0663.6,31.0
2021-10-14T07:47:00Z,00000200,00000000,0001.09,0000.47,0000.17,0000.07,-000.06,0000.56,-000.04,-000.33,0000.10,17.8,23.9,04.4,03.0,0663.5,31.0
2021-10-14T07:48:00Z,00000200,00000000,0000.45,0000.54,0000.33,0000.55,-000.04,0000.12,-000.16,0000.02,-000.26,17.8,24.0,04.4,03.0,0663.6,31.0
2021-10-14T07:49:00Z,00000200,00000000,-000.03,0000.17,0000.20,0000.27,0000.34,0000.45,0000.02,0000.09,0000.28,17.9,24.0,04.3,03.0,0663.6,31.0
2021-10-14T07:50:00Z,00000200,00010000,0000.46,0000.42,0000.31,0000.05,-000.33,-000.02,-000.03,-000.11,-000.41,17.8,24.0,04.3,03.0,0663.6,31.0
2021-10-14T07:51:00Z,00000200,00000000,-000.60,0000.64,0000.05,0000.28,0000.25,0000.37,0000.31,0000.07,0000.21,17.8,24.0,04.3,02.9,0663.6,31.0
2021-10-14T07:52:00Z,00000200,00000000,0000.32,0000.26,0000.25,0000.38,-000.14,0000.15,-000.11,-000.39,-000.17,17.7,24.0,04.3,02.9,0663.6,31.0
2021-10-14T07:53:00Z,00000200,00000000,0000.44,0000.07,0000.56,0000.15,-000.01,0000.21,-000.11,0000.25,-000.23,17.7,23.9,04.2,02.8,0663.5,31.0
2021-10-14T07:54:00Z,00000200,00000000,0000.77,0000.20,0000.04,0000.58,0000.09,0000.16,0000.19,-000.21,0000.19,17.7,23.9,04.3,02.9,0663.6,31.0
2021-10-14T07:55:00Z,00000200,00000000,0000.98,0000.46,0000.42,0000.28,-000.03,0000.29,-000.39,0000.05,0000.01,17.6,23.9,04.3,02.9,0663.5,31.0
2021-10-14T07:56:00Z,00000200,00000000,0000.06,0000.40,0000.04,0000.42,-000.01,-000.07,0000.56,0000.48,0000.47,17.6,23.9,04.2,02.9,0663.5,30.9
2021-10-14T07:57:00Z,00000200,40000000,,,,,,,-000.22,-000.12,-000.15,17.6,23.9,03.5,02.4,0663.3,30.9
2021-10-14T07:58:00Z,00000200,60000000,,,,,,,0000.00,-000.47,-000.00,17.4,24.0,04.0,02.7,0662.5,31.0
2021-10-14T07:59:00Z,00000200,20000000,,,,,,,0000.19,0000.25,0000.26,17.4,24.1,03.9,02.6,0662.4,31.0
